Погода в Степановке

Украина / Винницкая область     48°40′48″N   29°40′04″E
темп.,
°C
ветер,
м/с
пор.,
м/с
влажн.,
%
обл.,
%
осадки,
мм/ч
давл.,
гПа
погр.,
м
18 апреля, вс
вс1800:00+5сз228996 0.0 102032
03:00+4зсз119196 0.0 101910
06:00+3зсз229443 0.0 101924
09:00+6з228241 0.0 1019262
12:00+10зсз2259100 0.1 10181308
15:00+12зсз225184 0.1 10171513
18:00+12с2354100 0.0 1017686
21:00+10всв2371100 0.1 101875
19 апреля, пн
пн1900:00+9всв3581100 0.0 1018156
03:00+8вюв2483100 0.0 1017103
06:00+8в2384100 0.0 101691
09:00+9в3378100 0.0 1017360
12:00+9всв448099 0.1 1017513
15:00+10всв447697 0.1 1016673
18:00+11всв446856 0.0 1015994
21:00+8всв368154 0.1 1015121
20 апреля, вт
вт2000:00+7св4979100 0.0 1013202
03:00+6св41084100 0.0 1012251
06:00+5св4119096 0.0 1010308
09:00+8ссв81178100 0.0 1009740
12:00+10ссв8961100 0.1 10081534
15:00+11с81058100 0.1 10071728
18:00+9ссз81170100 0.1 10081167
21:00+7ссз71063100 0.1 10101236
21 апреля, ср
ср2100:00+7сз5966100 0.0 1010816
03:00+6з497575 0.0 1011420
06:00+3зсз39845 0.0 1013208
09:00+7з45685 0.0 1015508
12:00+11з355216 0.0 10151483
15:00+12зюз455490 0.2 10151366
18:00+13юз4556100 0.3 10151222
21:00+9ююз3372100 0.3 101631
22 апреля, чт
чт2200:00+8ю368495 0.2 1017106
03:00+7ююз339183 0.2 101853
06:00+6ю339331 0.0 101847
09:00+11ю34745 0.0 1019322
12:00+15ю45535 0.2 10181418
15:00+17ююз564686 0.2 10182169
18:00+15ююз235996 0.1 1018240
21:00+11юв587584 0.4 1019146